This is the latest recevied weather packets stored in our database for station/object N9DMT-13. If no packets are shown the sender has not sent any weather packets the latest 10 day(s).
| Time | Temp. | Humidity | Pressure | Rain* | Wind** | Luminosity | Snow |
|---|---|---|---|---|---|---|---|
| 1777594820 | 10° C | 47% | 982 hPa | 0 mm | - | - | - |
| 1777594519 | 10.56° C | 47% | 982 hPa | 0 mm | - | - | - |
| 1777594218 | 10.56° C | 46% | 982 hPa | 0 mm | - | - | - |
| 1777593918 | 10.56° C | 46% | 982 hPa | 0 mm | - | - | - |
| 1777593617 | 10.56° C | 46% | 981.9 hPa | 0 mm | - | - | - |
| 1777593316 | 10.56° C | 45% | 981.8 hPa | 0 mm | - | - | - |
| 1777593016 | 10.56° C | 47% | 981.9 hPa | 0 mm | - | - | - |
| 1777592715 | 10.56° C | 45% | 981.7 hPa | 0 mm | - | - | - |
| 1777592414 | 11.11° C | 44% | 981.8 hPa | 0 mm | - | - | - |
| 1777592113 | 11.11° C | 44% | 981.6 hPa | 0 mm | - | - | - |
| 1777591813 | 11.11° C | 45% | 981.6 hPa | 0 mm | - | - | - |
| 1777591512 | 11.11° C | 44% | 981.6 hPa | 0 mm | - | - | - |
| 1777591211 | 11.11° C | 46% | 981.6 hPa | 0 mm | - | - | - |
| 1777590911 | 11.11° C | 43% | 981.7 hPa | 0 mm | - | - | - |
| 1777590610 | 11.67° C | 44% | 981.5 hPa | 0 mm | - | - | - |
| 1777590309 | 11.67° C | 44% | 981.6 hPa | 0 mm | - | - | - |
| 1777590009 | 11.67° C | 43% | 981.6 hPa | 0 mm | - | - | - |
| 1777589708 | 11.67° C | 42% | 981.6 hPa | 0 mm | - | - | - |
| 1777589408 | 11.67° C | 43% | 981.5 hPa | 0 mm | - | - | - |
| 1777589107 | 11.67° C | 43% | 981.6 hPa | 0 mm | - | - | - |
| 1777588806 | 11.67° C | 43% | 981.5 hPa | 0 mm | - | - | - |
| 1777588505 | 11.67° C | 44% | 981.6 hPa | 0 mm | - | - | - |
| 1777588205 | 11.67° C | 43% | 981.5 hPa | 0 mm | - | - | - |
| 1777587904 | 12.22° C | 42% | 981.4 hPa | 0 mm | - | - | - |
| 1777587603 | 12.22° C | 44% | 981.5 hPa | 0 mm | - | - | - |
* Rain latest hour (hover to see other rain measurements)
** Current wind speed in m/s (hover to see current wind gust speed)